星链-30471 (STARLINK-30471 )

导读

STARLINK-30471是美国太空探索技术公司(SpaceX)“星链”(Starlink)星座的卫星,于2023年9月24日发射,属于星链互联网卫星星座的组成部分。星链项目计划在近地轨道构建万颗以上规模的卫星网络,为全球提供高速低延迟互联网服务,可覆盖偏远区域,支持居家、漫游及商业场景联网。作为低轨通信卫星,它延续星链标准化设计,依托自主碰撞规避系统保障轨道运行安全,助力星链完成全球组网布局。

基本信息
目录编号:
57932
目录名称:
STARLINK-30471
国际标识:
2023-147V
轨道中心:
EARTH
卫星名称:
星链-30471
卫星全名:
星链-30471 (STARLINK-30471 )
卫星状态:
在轨 (已飞行1083 天)
发射日期:
2023-09-24 UTC
国别 :
美国 (US)
星等 :
--
该卫星已列入 空间交会检测服务 Space Conjunction Data Service (SCDS) ,当前飞行风险评估等级: 高风险
轨道信息
数据来源 国际轨道数据
星历时间: 2026-09-11T14:25:34+0800
13小时前
查看轨道信息
半长轴: 6861.184km
偏心率: 0.0001507
轨道倾角: 43.005°
近地点辐角 274.920°
升交点赤经 356.829°
平近点角 85.148°
近地点: 482.013km
远地点: 484.081km
周期: 94.267分钟
每日圈数: 15.275807
详细信息
固有亮度:
5
最大亮度:
0.3
卫星平台:
Starlink v2.0 mini
覆盖范围:
全球
运营商:
太空探索技术公司
运营商所在国:
美国
制造商(研发单位):
太空探索技术公司
制造商所在国:
美国
使用方式:
暂无
卫星简介
星链(Starlink)计划是由太空探索技术公司(SpaceX)提出的一个巨型低轨卫星互联网星座项目,计划在2019年至2024年间在太空搭建由约1.2万颗卫星组成的“星链”网络,其中1584颗将部署在地球上空550千米处的近地轨道,并从2020年开始工作。该卫星仍在工作。
2D轨道图
3D轨道图
轨道高度分析图
轨道倾角分析图
轨道综合分析图
查看轨道综合分析图
与全量物体交会距离演化趋势
与全量物体交会风险概率演化趋势